Terminal Aerodrome Forecast
Issued by NWS Cleveland, OH

Home | Current Version | Previous Version | Graphics & Text | Print | Product List | Glossary On
Versions: 1 2 3 4 5 6 7 8 9 10 11 12 13 14 15 16 17 18 19 20 21 22 23 24 25 26 27 28 29 30 31 32 33 34 35 36
000
FTUS41 KCLE 251900 AAA
TAFCLE
TAF AMD
KCLE 251910Z 2519/2624 03015G25KT P6SM OVC040
     FM252300 03015G25KT 1 1/2SM -SN BR OVC015
     FM260600 03012G24KT 1 1/2SM -SN BR OVC007
     FM261300 02012KT 2SM -SN BR OVC007
     FM261800 36012KT P6SM OVC007=

USA.gov is the U.S. government's official web portal to all federal, state and local government web resources and services.